Weather History for KMAI - January, 2013

Change the Weather History Date:

Saturday, January 19, 2013

  Actual Average Record
Temperature  
Mean Temperature 50 °F 50 °F  
Max Temperature 64 °F 61 °F - ()
Min Temperature 35 °F 39 °F - ()
Degree Days  
Heating Degree Days 15    
Month to date heating degree days 141  
Since 1 July heating degree days 632  
Cooling Degree Days 0    
Month to date cooling degree days 46  
Year to date cooling degree days 46  
Moisture  
Dew Point 38 °F    
Average Humidity 70    
Maximum Humidity 93    
Minimum Humidity 46    
Precipitation  
Precipitation 0.00 in 0.15 in - ()
Month to date precipitation 0.51 2.86  
Year to date precipitation 0.51 2.86  
Sea Level Pressure  
Sea Level Pressure 30.32 in    
Wind  
Wind Speed 2 mph (NNE)    
Max Wind Speed 10 mph    
Max Gust Speed 14 mph    
Visibility 10 miles    
Events      
T = Trace of Precipitation, MM = Missing Value Source: NWS Daily Summary

Daily Weather History Graph

Daily Weather History Graph

Search for Another Location

Airport or City:

Trip Planner

Search our weather history database for the weather conditions in past years. The results will help you decide how hot, cold, wet, or windy it might be!

Date:

Astronomy

Jan. 19, 2013 Rise Set
Actual Time 6:38 AM CST 5:05 PM CST
Civil Twilight 6:12 AM CST 5:31 PM CST
Nautical Twilight 5:42 AM CST 6:00 PM CST
Astronomical Twilight 5:13 AM CST 6:29 PM CST
Moon 11:26 AM CST (1/19) 12:17 AM CST (1/19)
Length of Visible Light 11h 18m
Length of Day
10h 27m
First Quarter, 57% of the Moon is Illuminated
Jan 19
First Quarter
Jan 26
Full
Feb 3
Last Quarter
Feb 10
New
Feb 17
First Quarter

Hourly Weather History & Observations

Time (CST) Temp. Windchill Dew Point Humidity Pressure Visibility Wind Dir Wind Speed Gust Speed Precip Events Conditions
12:53 AM 37.9 °F - 33.1 °F 83% 30.40 in 10.0 mi Calm Calm - N/A   Partly Cloudy
1:53 AM 37.0 °F - 32.0 °F 82% 30.38 in 6.0 mi Calm Calm - N/A   Haze
2:53 AM 37.9 °F - 30.9 °F 76% 30.37 in 10.0 mi Calm Calm - N/A   Clear
3:53 AM 35.1 °F 31.0 °F 30.9 °F 85% 30.36 in 10.0 mi NNE 4.6 mph - N/A   Clear
4:53 AM 35.1 °F - 30.9 °F 85% 30.37 in 10.0 mi Calm Calm - N/A   Clear
5:53 AM 37.0 °F - 30.9 °F 79% 30.37 in 10.0 mi Calm Calm - N/A   Mostly Cloudy
6:53 AM 39.0 °F 36.8 °F 30.9 °F 73% 30.38 in 10.0 mi NE 3.5 mph - N/A   Partly Cloudy
7:53 AM 42.1 °F 38.4 °F 32.0 °F 67% 30.40 in 10.0 mi NE 5.8 mph - N/A   Scattered Clouds
8:53 AM 46.0 °F 42.5 °F 32.0 °F 58% 30.41 in 10.0 mi NE 6.9 mph - N/A   Scattered Clouds
9:53 AM 51.1 °F - 33.1 °F 50% 30.41 in 10.0 mi East 6.9 mph - N/A   Mostly Cloudy
10:53 AM 55.0 °F - 36.0 °F 49% 30.37 in 10.0 mi ENE 5.8 mph - N/A   Mostly Cloudy
11:53 AM 59.0 °F - 39.0 °F 48% 30.33 in 10.0 mi East 3.5 mph - N/A   Mostly Cloudy
12:53 PM 61.0 °F - 39.9 °F 46% 30.29 in 10.0 mi Calm Calm - N/A   Mostly Cloudy
1:53 PM 62.1 °F - 41.0 °F 46% 30.27 in 10.0 mi NNW 6.9 mph - N/A   Overcast
2:53 PM 63.0 °F - 43.0 °F 48% 30.25 in 10.0 mi North 5.8 mph - N/A   Partly Cloudy
3:53 PM 62.1 °F - 43.0 °F 50% 30.25 in 10.0 mi North 4.6 mph - N/A   Clear
4:53 PM 59.0 °F - 44.1 °F 58% 30.25 in 10.0 mi Calm Calm - N/A   Clear
5:53 PM 55.0 °F - 45.0 °F 69% 30.26 in 10.0 mi Calm Calm - N/A   Clear
6:53 PM 54.0 °F - 45.0 °F 72% 30.27 in 10.0 mi Calm Calm - N/A   Partly Cloudy
7:53 PM 53.1 °F - 46.0 °F 77% 30.27 in 10.0 mi Calm Calm - N/A   Mostly Cloudy
8:53 PM 48.9 °F - 45.0 °F 86% 30.26 in 10.0 mi Calm Calm - N/A   Partly Cloudy
9:53 PM 46.0 °F 44.8 °F 44.1 °F 93% 30.26 in 10.0 mi NW 3.5 mph - N/A   Scattered Clouds
10:53 PM 48.9 °F - 45.0 °F 86% 30.24 in 10.0 mi Calm Calm - N/A   Overcast
11:53 PM 50.0 °F - 46.0 °F 86% 30.23 in 10.0 mi Calm Calm - N/A   Overcast